Time,TemperatureF,DewpointF,PressureIn,WindDirection,WindDirectionDegrees,WindSpeedMPH,WindSpeedGustMPH,Humidity,HourlyPrecipIn,Conditions,Clouds,dailyrainin,SoftwareType,DateUTC
2013-05-08 00:01:00,60.6,23.7,30.00,NW,305,7.0,12.8,24,0.00,,,-99.99,FreeWX-Wi 1.02,2013-05-08 07:01:00,
2013-05-08 00:06:00,60.6,23.7,30.00,NW,306,6.0,13.2,24,0.00,,,-99.99,FreeWX-Wi 1.02,2013-05-08 07:06:00,
2013-05-08 00:11:00,60.4,23.5,30.00,NW,309,6.0,10.5,24,0.00,,,-99.99,FreeWX-Wi 1.02,2013-05-08 07:11:00,
2013-05-08 00:16:00,60.4,23.5,30.00,NW,308,6.0,13.2,24,0.00,,,-99.99,FreeWX-Wi 1.02,2013-05-08 07:16:00,
2013-05-08 00:21:00,60.3,23.4,30.00,NW,308,6.0,8.7,24,0.00,,,-99.99,FreeWX-Wi 1.02,2013-05-08 07:21:00,
2013-05-08 00:26:00,60.4,23.5,30.00,NW,316,5.0,9.6,24,0.00,,,-99.99,FreeWX-Wi 1.02,2013-05-08 07:26:00,
2013-05-08 00:31:00,60.4,23.5,30.03,NW,324,5.0,12.3,24,0.00,,,-99.99,FreeWX-Wi 1.02,2013-05-08 07:31:00,
2013-05-08 00:36:00,60.6,23.7,30.03,NNW,328,5.0,12.3,24,0.00,,,-99.99,FreeWX-Wi 1.02,2013-05-08 07:36:00,
2013-05-08 00:41:00,60.4,23.5,30.03,NNW,330,5.0,8.7,24,0.00,,,-99.99,FreeWX-Wi 1.02,2013-05-08 07:41:00,
2013-05-08 00:46:00,60.3,24.3,30.00,NNW,330,5.0,8.7,25,0.00,,,-99.99,FreeWX-Wi 1.02,2013-05-08 07:46:00,
2013-05-08 00:51:00,59.9,24.1,30.00,NNW,328,5.0,7.6,25,0.00,,,-99.99,FreeWX-Wi 1.02,2013-05-08 07:51:00,
2013-05-08 00:56:00,59.7,23.9,30.00,NW,324,5.0,8.7,25,0.00,,,-99.99,FreeWX-Wi 1.02,2013-05-08 07:56:00,
2013-05-08 01:01:00,59.5,23.7,30.03,NW,319,5.0,8.1,25,0.00,,,-99.99,FreeWX-Wi 1.02,2013-05-08 08:01:00,
2013-05-08 01:06:00,59.4,23.5,30.03,NW,314,4.0,8.7,25,0.00,,,-99.99,FreeWX-Wi 1.02,2013-05-08 08:06:00,
2013-05-08 01:11:00,59.4,23.5,30.03,NW,312,4.0,8.7,25,0.00,,,-99.99,FreeWX-Wi 1.02,2013-05-08 08:11:00,
2013-05-08 01:16:00,59.5,23.7,30.00,NW,318,4.0,12.3,25,0.00,,,-99.99,FreeWX-Wi 1.02,2013-05-08 08:16:00,
2013-05-08 01:21:00,59.5,23.7,30.00,NW,318,4.0,8.3,25,0.00,,,-99.99,FreeWX-Wi 1.02,2013-05-08 08:21:00,
2013-05-08 01:26:00,59.4,23.5,30.00,NW,324,4.0,10.5,25,0.00,,,-99.99,FreeWX-Wi 1.02,2013-05-08 08:26:00,
2013-05-08 01:31:00,59.4,23.5,30.00,NNW,331,4.0,9.2,25,0.00,,,-99.99,FreeWX-Wi 1.02,2013-05-08 08:31:00,
2013-05-08 01:36:00,59.2,23.4,30.00,NNW,331,4.0,7.6,25,0.00,,,-99.99,FreeWX-Wi 1.02,2013-05-08 08:36:00,
2013-05-08 01:41:00,59.2,23.4,30.00,NNW,335,4.0,8.1,25,0.00,,,-99.99,FreeWX-Wi 1.02,2013-05-08 08:41:00,
2013-05-08 01:46:00,59.4,23.5,30.00,NNW,332,4.0,10.1,25,0.00,,,-99.99,FreeWX-Wi 1.02,2013-05-08 08:46:00,
2013-05-08 01:51:00,59.4,23.5,30.00,NNW,334,4.0,8.1,25,0.00,,,-99.99,FreeWX-Wi 1.02,2013-05-08 08:51:00,
2013-05-08 01:56:00,59.2,23.4,30.00,NNW,329,4.0,8.3,25,0.00,,,-99.99,FreeWX-Wi 1.02,2013-05-08 08:56:00,
2013-05-08 02:01:00,59.2,23.4,30.00,NW,326,4.0,11.9,25,0.00,,,-99.99,FreeWX-Wi 1.02,2013-05-08 09:01:00,
2013-05-08 02:06:00,59.0,23.2,30.00,NNW,327,4.0,9.2,25,0.00,,,-99.99,FreeWX-Wi 1.02,2013-05-08 09:06:00,
2013-05-08 02:11:00,59.0,23.2,30.00,NW,320,5.0,12.8,25,0.00,,,-99.99,FreeWX-Wi 1.02,2013-05-08 09:11:00,
2013-05-08 02:16:00,59.0,23.2,30.00,NW,317,5.0,12.8,25,0.00,,,-99.99,FreeWX-Wi 1.02,2013-05-08 09:16:00,
2013-05-08 02:21:00,59.2,23.4,30.00,NW,313,5.0,14.1,25,0.00,,,-99.99,FreeWX-Wi 1.02,2013-05-08 09:21:00,
2013-05-08 02:26:00,59.0,23.2,30.00,NW,306,6.0,15.4,25,0.00,,,-99.99,FreeWX-Wi 1.02,2013-05-08 09:26:00,
2013-05-08 02:31:00,59.2,23.4,30.00,WNW,300,6.0,12.8,25,0.00,,,-99.99,FreeWX-Wi 1.02,2013-05-08 09:31:00,
2013-05-08 02:36:00,59.0,23.2,30.00,WNW,295,6.0,12.8,25,0.00,,,-99.99,FreeWX-Wi 1.02,2013-05-08 09:36:00,
2013-05-08 02:41:00,58.5,23.7,30.00,WNW,296,6.0,6.3,26,0.00,,,-99.99,FreeWX-Wi 1.02,2013-05-08 09:41:00,
2013-05-08 02:46:00,58.1,23.4,30.00,WNW,294,5.0,6.3,26,0.00,,,-99.99,FreeWX-Wi 1.02,2013-05-08 09:46:00,
2013-05-08 02:51:00,58.3,23.5,30.00,WNW,296,4.0,5.4,26,0.00,,,-99.99,FreeWX-Wi 1.02,2013-05-08 09:51:00,
2013-05-08 02:56:00,57.9,23.2,30.00,WNW,297,4.0,7.2,26,0.00,,,-99.99,FreeWX-Wi 1.02,2013-05-08 09:56:00,
2013-05-08 03:01:00,57.7,24.1,30.00,WNW,298,3.0,11.0,27,0.00,,,-99.99,FreeWX-Wi 1.02,2013-05-08 10:01:00,
2013-05-08 03:06:00,57.6,24.6,30.00,WNW,302,3.0,8.1,28,0.00,,,-99.99,FreeWX-Wi 1.02,2013-05-08 10:06:00,
2013-05-08 03:11:00,57.2,24.4,30.00,WNW,302,2.0,3.1,28,0.00,,,-99.99,FreeWX-Wi 1.02,2013-05-08 10:11:00,
2013-05-08 03:16:00,57.0,25.2,30.00,WNW,300,2.0,7.6,29,0.00,,,-99.99,FreeWX-Wi 1.02,2013-05-08 10:16:00,
2013-05-08 03:21:00,57.0,25.2,30.00,WNW,295,3.0,8.7,29,0.00,,,-99.99,FreeWX-Wi 1.02,2013-05-08 10:21:00,
2013-05-08 03:26:00,57.0,25.2,30.00,WNW,293,3.0,8.1,29,0.00,,,-99.99,FreeWX-Wi 1.02,2013-05-08 10:26:00,
2013-05-08 03:31:00,57.2,24.4,30.00,WNW,292,3.0,10.5,28,0.00,,,-99.99,FreeWX-Wi 1.02,2013-05-08 10:31:00,
2013-05-08 03:36:00,57.6,23.9,30.00,WNW,289,4.0,9.6,27,0.00,,,-99.99,FreeWX-Wi 1.02,2013-05-08 10:36:00,
2013-05-08 03:41:00,57.6,23.9,30.00,WNW,286,5.0,9.6,27,0.00,,,-99.99,FreeWX-Wi 1.02,2013-05-08 10:41:00,
2013-05-08 03:46:00,57.7,23.2,30.00,WNW,287,5.0,11.9,26,0.00,,,-99.99,FreeWX-Wi 1.02,2013-05-08 10:46:00,
2013-05-08 03:51:00,57.9,23.2,30.00,WNW,287,6.0,15.0,26,0.00,,,-99.99,FreeWX-Wi 1.02,2013-05-08 10:51:00,
2013-05-08 03:56:00,57.7,22.1,30.00,WNW,286,6.0,11.0,25,0.00,,,-99.99,FreeWX-Wi 1.02,2013-05-08 10:56:00,
2013-05-08 04:01:00,57.9,22.3,30.00,WNW,287,6.0,10.1,25,0.00,,,-99.99,FreeWX-Wi 1.02,2013-05-08 11:01:00,
2013-05-08 04:06:00,57.9,22.3,30.00,WNW,287,5.0,8.7,25,0.00,,,-99.99,FreeWX-Wi 1.02,2013-05-08 11:06:00,
2013-05-08 04:11:00,57.7,22.1,30.00,WNW,292,5.0,5.4,25,0.00,,,-99.99,FreeWX-Wi 1.02,2013-05-08 11:11:00,
2013-05-08 04:16:00,57.9,22.3,30.00,WNW,289,5.0,8.3,25,0.00,,,-99.99,FreeWX-Wi 1.02,2013-05-08 11:16:00,
2013-05-08 04:21:00,57.6,22.1,30.00,WNW,290,4.0,6.3,25,0.00,,,-99.99,FreeWX-Wi 1.02,2013-05-08 11:21:00,
2013-05-08 04:26:00,57.4,21.9,30.00,WNW,289,4.0,5.8,25,0.00,,,-99.99,FreeWX-Wi 1.02,2013-05-08 11:26:00,
2013-05-08 04:31:00,57.6,22.1,30.00,WNW,291,4.0,8.7,25,0.00,,,-99.99,FreeWX-Wi 1.02,2013-05-08 11:31:00,
2013-05-08 04:36:00,57.7,21.2,30.00,WNW,289,4.0,8.7,24,0.00,,,-99.99,FreeWX-Wi 1.02,2013-05-08 11:36:00,
2013-05-08 04:41:00,57.7,21.2,30.00,WNW,282,4.0,10.5,24,0.00,,,-99.99,FreeWX-Wi 1.02,2013-05-08 11:41:00,
2013-05-08 04:46:00,57.6,22.1,30.00,WNW,284,4.0,10.1,25,0.00,,,-99.99,FreeWX-Wi 1.02,2013-05-08 11:46:00,
2013-05-08 04:51:00,57.9,22.3,30.00,WNW,283,4.0,8.7,25,0.00,,,-99.99,FreeWX-Wi 1.02,2013-05-08 11:51:00,
2013-05-08 04:56:00,57.6,22.1,30.00,West,281,5.0,12.3,25,0.00,,,-99.99,FreeWX-Wi 1.02,2013-05-08 11:56:00,
2013-05-08 05:01:00,57.6,22.1,30.00,West,277,5.0,8.1,25,0.00,,,-99.99,FreeWX-Wi 1.02,2013-05-08 12:01:00,
2013-05-08 05:06:00,57.4,21.9,30.00,WNW,282,4.0,7.2,25,0.00,,,-99.99,FreeWX-Wi 1.02,2013-05-08 12:06:00,
2013-05-08 05:11:00,57.4,21.9,30.00,WNW,286,4.0,12.3,25,0.00,,,-99.99,FreeWX-Wi 1.02,2013-05-08 12:11:00,
2013-05-08 05:16:00,57.4,22.8,30.00,WNW,286,4.0,6.3,26,0.00,,,-99.99,FreeWX-Wi 1.02,2013-05-08 12:16:00,
2013-05-08 05:21:00,57.6,23.0,30.00,WNW,287,4.0,7.6,26,0.00,,,-99.99,FreeWX-Wi 1.02,2013-05-08 12:21:00,
2013-05-08 05:26:00,57.6,22.1,30.00,WNW,292,3.0,7.2,25,0.00,,,-99.99,FreeWX-Wi 1.02,2013-05-08 12:26:00,
2013-05-08 05:31:00,57.4,21.9,30.00,WNW,295,3.0,8.1,25,0.00,,,-99.99,FreeWX-Wi 1.02,2013-05-08 12:31:00,
2013-05-08 05:36:00,57.6,22.1,30.00,WNW,292,3.0,8.3,25,0.00,,,-99.99,FreeWX-Wi 1.02,2013-05-08 12:36:00,
2013-05-08 05:41:00,57.6,22.1,30.00,WNW,294,3.0,4.9,25,0.00,,,-99.99,FreeWX-Wi 1.02,2013-05-08 12:41:00,
2013-05-08 05:46:00,57.7,22.1,30.00,WNW,300,3.0,6.3,25,0.00,,,-99.99,FreeWX-Wi 1.02,2013-05-08 12:46:00,
2013-05-08 05:51:00,57.9,22.3,30.00,WNW,302,3.0,8.1,25,0.00,,,-99.99,FreeWX-Wi 1.02,2013-05-08 12:51:00,
2013-05-08 05:56:00,57.7,22.1,30.00,NW,304,3.0,11.0,25,0.00,,,-99.99,FreeWX-Wi 1.02,2013-05-08 12:56:00,
2013-05-08 06:01:00,58.1,22.5,30.00,WNW,302,3.0,7.2,25,0.00,,,-99.99,FreeWX-Wi 1.02,2013-05-08 13:01:00,
2013-05-08 06:06:00,58.1,22.5,30.00,NW,304,3.0,8.3,25,0.00,,,-99.99,FreeWX-Wi 1.02,2013-05-08 13:06:00,
2013-05-08 06:11:00,58.3,22.6,30.00,WNW,299,4.0,10.1,25,0.00,,,-99.99,FreeWX-Wi 1.02,2013-05-08 13:11:00,
2013-05-08 06:16:00,58.6,23.0,30.00,WNW,292,4.0,7.6,25,0.00,,,-99.99,FreeWX-Wi 1.02,2013-05-08 13:16:00,
2013-05-08 06:21:00,58.8,22.1,30.00,WNW,292,4.0,8.1,24,0.00,,,-99.99,FreeWX-Wi 1.02,2013-05-08 13:21:00,
2013-05-08 06:26:00,59.0,22.3,30.00,WNW,292,4.0,6.3,24,0.00,,,-99.99,FreeWX-Wi 1.02,2013-05-08 13:26:00,
2013-05-08 06:31:00,59.2,22.5,30.00,WNW,292,3.0,6.3,24,0.00,,,-99.99,FreeWX-Wi 1.02,2013-05-08 13:31:00,
2013-05-08 06:36:00,59.2,22.5,30.00,WNW,294,3.0,5.4,24,0.00,,,-99.99,FreeWX-Wi 1.02,2013-05-08 13:36:00,
2013-05-08 06:41:00,59.5,22.6,30.00,WNW,295,2.0,5.8,24,0.00,,,-99.99,FreeWX-Wi 1.02,2013-05-08 13:41:00,
2013-05-08 06:46:00,59.7,20.8,30.00,WNW,295,2.0,8.3,22,0.00,,,-99.99,FreeWX-Wi 1.02,2013-05-08 13:46:00,
2013-05-08 06:51:00,60.6,21.6,30.03,WNW,294,2.0,5.8,22,0.00,,,-99.99,FreeWX-Wi 1.02,2013-05-08 13:51:00,
2013-05-08 06:56:00,61.0,20.8,30.03,WNW,292,2.0,4.9,21,0.00,,,-99.99,FreeWX-Wi 1.02,2013-05-08 13:56:00,
2013-05-08 07:01:00,61.5,21.2,30.03,WNW,294,2.0,8.7,21,0.00,,,-99.99,FreeWX-Wi 1.02,2013-05-08 14:01:00,
2013-05-08 07:06:00,62.2,21.7,30.03,WNW,295,3.0,10.5,21,0.00,,,-99.99,FreeWX-Wi 1.02,2013-05-08 14:06:00,
2013-05-08 07:11:00,62.4,21.9,30.03,WNW,295,3.0,6.3,21,0.00,,,-99.99,FreeWX-Wi 1.02,2013-05-08 14:11:00,
2013-05-08 07:16:00,62.6,22.1,30.03,WNW,298,3.0,7.2,21,0.00,,,-99.99,FreeWX-Wi 1.02,2013-05-08 14:16:00,
2013-05-08 07:21:00,63.1,22.6,30.03,WNW,297,3.0,8.3,21,0.00,,,-99.99,FreeWX-Wi 1.02,2013-05-08 14:21:00,
2013-05-08 07:26:00,63.7,19.4,30.03,WNW,301,4.0,10.5,18,0.00,,,-99.99,FreeWX-Wi 1.02,2013-05-08 14:26:00,
2013-05-08 07:31:00,63.7,19.4,30.03,WNW,302,4.0,6.3,18,0.00,,,-99.99,FreeWX-Wi 1.02,2013-05-08 14:31:00,
2013-05-08 07:36:00,63.3,19.0,30.03,WNW,303,4.0,6.7,18,0.00,,,-99.99,FreeWX-Wi 1.02,2013-05-08 14:36:00,
2013-05-08 07:41:00,63.1,19.0,30.03,WNW,303,4.0,11.0,18,0.00,,,-99.99,FreeWX-Wi 1.02,2013-05-08 14:41:00,
2013-05-08 07:46:00,63.7,19.4,30.03,NW,307,4.0,8.3,18,0.00,,,-99.99,FreeWX-Wi 1.02,2013-05-08 14:46:00,
2013-05-08 07:51:00,64.8,20.3,30.03,NW,307,4.0,10.1,18,0.00,,,-99.99,FreeWX-Wi 1.02,2013-05-08 14:51:00,
2013-05-08 07:56:00,65.8,21.2,30.03,NW,305,4.0,11.0,18,0.00,,,-99.99,FreeWX-Wi 1.02,2013-05-08 14:56:00,
2013-05-08 08:01:00,66.6,20.5,30.03,WNW,302,5.0,12.8,17,0.00,,,-99.99,FreeWX-Wi 1.02,2013-05-08 15:01:00,
2013-05-08 08:06:00,66.6,20.5,30.03,WNW,300,5.0,11.0,17,0.00,,,-99.99,FreeWX-Wi 1.02,2013-05-08 15:06:00,
2013-05-08 08:11:00,66.6,20.5,30.03,WNW,298,5.0,15.0,17,0.00,,,-99.99,FreeWX-Wi 1.02,2013-05-08 15:11:00,
2013-05-08 08:16:00,66.9,20.7,30.03,WNW,292,5.0,8.1,17,0.00,,,-99.99,FreeWX-Wi 1.02,2013-05-08 15:16:00,
2013-05-08 08:21:00,66.7,20.5,30.03,WNW,291,5.0,10.1,17,0.00,,,-99.99,FreeWX-Wi 1.02,2013-05-08 15:21:00,
2013-05-08 08:26:00,66.9,20.7,30.03,WNW,292,5.0,8.7,17,0.00,,,-99.99,FreeWX-Wi 1.02,2013-05-08 15:26:00,
2013-05-08 08:31:00,67.5,21.2,30.03,WNW,289,5.0,11.0,17,0.00,,,-99.99,FreeWX-Wi 1.02,2013-05-08 15:31:00,
2013-05-08 08:36:00,68.9,22.3,30.03,WNW,285,5.0,10.5,17,0.00,,,-99.99,FreeWX-Wi 1.02,2013-05-08 15:36:00,
2013-05-08 08:41:00,69.8,23.0,30.03,WNW,286,5.0,11.9,17,0.00,,,-99.99,FreeWX-Wi 1.02,2013-05-08 15:41:00,
2013-05-08 08:46:00,70.7,23.7,30.03,WNW,283,6.0,13.2,17,0.00,,,-99.99,FreeWX-Wi 1.02,2013-05-08 15:46:00,
2013-05-08 08:51:00,71.2,24.3,30.03,West,281,6.0,14.5,17,0.00,,,-99.99,FreeWX-Wi 1.02,2013-05-08 15:51:00,
2013-05-08 08:56:00,71.2,24.3,30.03,West,277,6.0,13.2,17,0.00,,,-99.99,FreeWX-Wi 1.02,2013-05-08 15:56:00,
2013-05-08 09:01:00,71.4,24.3,30.03,West,273,7.0,15.4,17,0.00,,,-99.99,FreeWX-Wi 1.02,2013-05-08 16:01:00,
2013-05-08 09:06:00,71.4,24.3,30.03,West,273,7.0,12.3,17,0.00,,,-99.99,FreeWX-Wi 1.02,2013-05-08 16:06:00,
2013-05-08 09:11:00,72.3,23.5,30.03,West,271,7.0,10.1,16,0.00,,,-99.99,FreeWX-Wi 1.02,2013-05-08 16:11:00,
2013-05-08 09:16:00,73.0,24.3,30.03,West,270,6.0,8.1,16,0.00,,,-99.99,FreeWX-Wi 1.02,2013-05-08 16:16:00,
2013-05-08 09:21:00,73.4,24.4,30.03,West,269,6.0,11.0,16,0.00,,,-99.99,FreeWX-Wi 1.02,2013-05-08 16:21:00,
2013-05-08 09:26:00,73.8,24.8,30.03,West,269,6.0,11.9,16,0.00,,,-99.99,FreeWX-Wi 1.02,2013-05-08 16:26:00,
2013-05-08 09:31:00,74.1,25.0,30.03,West,267,6.0,12.8,16,0.00,,,-99.99,FreeWX-Wi 1.02,2013-05-08 16:31:00,
2013-05-08 09:36:00,74.3,25.2,30.03,West,267,6.0,11.9,16,0.00,,,-99.99,FreeWX-Wi 1.02,2013-05-08 16:36:00,
2013-05-08 09:41:00,74.8,25.7,30.03,West,266,6.0,11.4,16,0.00,,,-99.99,FreeWX-Wi 1.02,2013-05-08 16:41:00,
2013-05-08 09:46:00,75.2,24.4,30.03,West,265,7.0,13.2,15,0.00,,,-99.99,FreeWX-Wi 1.02,2013-05-08 16:46:00,
2013-05-08 09:51:00,75.4,24.4,30.03,West,266,6.0,10.5,15,0.00,,,-99.99,FreeWX-Wi 1.02,2013-05-08 16:51:00,
2013-05-08 09:56:00,75.7,24.8,30.03,West,266,7.0,15.4,15,0.00,,,-99.99,FreeWX-Wi 1.02,2013-05-08 16:56:00,
2013-05-08 10:01:00,75.9,25.0,30.03,West,268,7.0,13.2,15,0.00,,,-99.99,FreeWX-Wi 1.02,2013-05-08 17:01:00,
2013-05-08 10:06:00,76.3,25.2,30.03,West,270,8.0,13.2,15,0.00,,,-99.99,FreeWX-Wi 1.02,2013-05-08 17:06:00,
2013-05-08 10:11:00,77.2,25.9,30.03,West,270,8.0,15.0,15,0.00,,,-99.99,FreeWX-Wi 1.02,2013-05-08 17:11:00,
2013-05-08 10:16:00,77.5,26.2,30.03,West,270,8.0,14.5,15,0.00,,,-99.99,FreeWX-Wi 1.02,2013-05-08 17:16:00,
2013-05-08 10:21:00,77.0,25.9,30.03,West,268,8.0,15.0,15,0.00,,,-99.99,FreeWX-Wi 1.02,2013-05-08 17:21:00,
2013-05-08 10:26:00,77.2,25.9,30.03,West,267,9.0,12.8,15,0.00,,,-99.99,FreeWX-Wi 1.02,2013-05-08 17:26:00,
2013-05-08 10:31:00,77.4,26.1,30.03,West,265,9.0,15.0,15,0.00,,,-99.99,FreeWX-Wi 1.02,2013-05-08 17:31:00,
2013-05-08 10:36:00,77.2,25.9,30.03,West,262,9.0,17.0,15,0.00,,,-99.99,FreeWX-Wi 1.02,2013-05-08 17:36:00,
2013-05-08 10:41:00,77.5,26.2,30.03,West,262,9.0,14.1,15,0.00,,,-99.99,FreeWX-Wi 1.02,2013-05-08 17:41:00,
2013-05-08 10:46:00,78.6,27.1,30.06,West,264,9.0,13.2,15,0.00,,,-99.99,FreeWX-Wi 1.02,2013-05-08 17:46:00,
2013-05-08 10:51:00,78.8,27.3,30.06,West,263,9.0,15.4,15,0.00,,,-99.99,FreeWX-Wi 1.02,2013-05-08 17:51:00,
2013-05-08 10:56:00,78.6,27.1,30.06,West,262,9.0,13.2,15,0.00,,,-99.99,FreeWX-Wi 1.02,2013-05-08 17:56:00,
2013-05-08 11:01:00,77.5,26.2,30.06,West,261,9.0,13.2,15,0.00,,,-99.99,FreeWX-Wi 1.02,2013-05-08 18:01:00,
2013-05-08 11:06:00,78.4,27.0,30.06,West,260,9.0,15.4,15,0.00,,,-99.99,FreeWX-Wi 1.02,2013-05-08 18:06:00,
2013-05-08 11:11:00,79.3,27.7,30.06,West,260,9.0,16.8,15,0.00,,,-99.99,FreeWX-Wi 1.02,2013-05-08 18:11:00,
2013-05-08 11:16:00,79.7,28.0,30.06,West,261,9.0,13.2,15,0.00,,,-99.99,FreeWX-Wi 1.02,2013-05-08 18:16:00,
2013-05-08 11:21:00,79.9,28.0,30.06,West,261,9.0,12.3,15,0.00,,,-99.99,FreeWX-Wi 1.02,2013-05-08 18:21:00,
2013-05-08 11:26:00,80.2,28.4,30.06,West,260,8.0,11.9,15,0.00,,,-99.99,FreeWX-Wi 1.02,2013-05-08 18:26:00,
2013-05-08 11:31:00,79.9,28.0,30.06,West,266,8.0,11.0,15,0.00,,,-99.99,FreeWX-Wi 1.02,2013-05-08 18:31:00,
2013-05-08 11:36:00,80.1,28.2,30.06,West,269,7.0,8.1,15,0.00,,,-99.99,FreeWX-Wi 1.02,2013-05-08 18:36:00,
2013-05-08 11:41:00,80.2,28.4,30.06,West,265,6.0,11.0,15,0.00,,,-99.99,FreeWX-Wi 1.02,2013-05-08 18:41:00,
2013-05-08 11:46:00,81.0,27.3,30.03,West,262,6.0,12.3,14,0.00,,,-99.99,FreeWX-Wi 1.02,2013-05-08 18:46:00,
2013-05-08 11:51:00,81.5,27.7,30.03,West,261,6.0,8.7,14,0.00,,,-99.99,FreeWX-Wi 1.02,2013-05-08 18:51:00,
2013-05-08 11:56:00,81.5,27.7,30.03,West,263,5.0,8.1,14,0.00,,,-99.99,FreeWX-Wi 1.02,2013-05-08 18:56:00,
2013-05-08 12:01:00,82.6,28.6,30.03,WSW,257,6.0,11.0,14,0.00,,,-99.99,FreeWX-Wi 1.02,2013-05-08 19:01:00,
2013-05-08 12:06:00,84.2,28.0,30.03,WSW,250,6.0,8.7,13,0.00,,,-99.99,FreeWX-Wi 1.02,2013-05-08 19:06:00,
2013-05-08 12:11:00,83.8,29.5,30.03,WSW,244,5.0,5.8,14,0.00,,,-99.99,FreeWX-Wi 1.02,2013-05-08 19:11:00,
2013-05-08 12:16:00,84.2,28.0,30.03,WSW,238,4.0,11.4,13,0.00,,,-99.99,FreeWX-Wi 1.02,2013-05-08 19:16:00,
2013-05-08 12:21:00,84.2,28.0,30.03,SW,232,5.0,8.3,13,0.00,,,-99.99,FreeWX-Wi 1.02,2013-05-08 19:21:00,
2013-05-08 12:26:00,84.0,29.7,30.03,SW,226,5.0,11.0,14,0.00,,,-99.99,FreeWX-Wi 1.02,2013-05-08 19:26:00,
2013-05-08 12:31:00,84.9,28.6,30.06,SW,225,5.0,10.1,13,0.00,,,-99.99,FreeWX-Wi 1.02,2013-05-08 19:31:00,
2013-05-08 12:36:00,85.5,28.9,30.06,SW,227,4.0,10.1,13,0.00,,,-99.99,FreeWX-Wi 1.02,2013-05-08 19:36:00,
2013-05-08 12:41:00,84.4,28.2,30.06,SW,233,5.0,8.7,13,0.00,,,-99.99,FreeWX-Wi 1.02,2013-05-08 19:41:00,
2013-05-08 12:46:00,84.0,29.7,30.03,WSW,238,5.0,8.7,14,0.00,,,-99.99,FreeWX-Wi 1.02,2013-05-08 19:46:00,
2013-05-08 12:52:00,82.6,28.6,30.03,WSW,243,4.0,8.3,14,0.00,,,-99.99,FreeWX-Wi 1.02,2013-05-08 19:52:00,
2013-05-08 12:57:00,82.9,28.8,30.03,WSW,241,4.0,8.7,14,0.00,,,-99.99,FreeWX-Wi 1.02,2013-05-08 19:57:00,
2013-05-08 13:02:00,83.8,29.5,30.03,WSW,238,4.0,8.1,14,0.00,,,-99.99,FreeWX-Wi 1.02,2013-05-08 20:02:00,
2013-05-08 13:07:00,84.6,28.2,30.03,WSW,238,4.0,8.3,13,0.00,,,-99.99,FreeWX-Wi 1.02,2013-05-08 20:07:00,
2013-05-08 13:12:00,85.5,28.9,30.03,WSW,240,4.0,10.1,13,0.00,,,-99.99,FreeWX-Wi 1.02,2013-05-08 20:12:00,
2013-05-08 13:17:00,86.2,29.5,30.03,WSW,244,4.0,10.5,13,0.00,,,-99.99,FreeWX-Wi 1.02,2013-05-08 20:17:00,
2013-05-08 13:22:00,86.0,29.5,30.03,WSW,238,6.0,11.0,13,0.00,,,-99.99,FreeWX-Wi 1.02,2013-05-08 20:22:00,
2013-05-08 13:27:00,85.5,28.9,30.03,WSW,237,6.0,10.1,13,0.00,,,-99.99,FreeWX-Wi 1.02,2013-05-08 20:27:00,
2013-05-08 13:32:00,85.8,29.3,30.03,WSW,238,6.0,11.0,13,0.00,,,-99.99,FreeWX-Wi 1.02,2013-05-08 20:32:00,
2013-05-08 13:37:00,85.6,29.1,30.03,WSW,237,6.0,8.3,13,0.00,,,-99.99,FreeWX-Wi 1.02,2013-05-08 20:37:00,
2013-05-08 13:42:00,84.7,28.4,30.03,SW,229,5.0,5.0,13,0.00,,,-99.99,FreeWX-Wi 1.02,2013-05-08 20:42:00,
2013-05-08 13:47:00,84.4,28.2,30.03,SW,223,5.0,8.1,13,0.00,,,-99.99,FreeWX-Wi 1.02,2013-05-08 20:47:00,
2013-05-08 13:52:00,84.7,28.4,30.03,SW,230,4.0,8.1,13,0.00,,,-99.99,FreeWX-Wi 1.02,2013-05-08 20:52:00,
2013-05-08 13:57:00,85.5,28.9,30.03,SW,232,4.0,11.0,13,0.00,,,-99.99,FreeWX-Wi 1.02,2013-05-08 20:57:00,
2013-05-08 14:02:00,85.1,28.8,30.03,SW,231,4.0,10.1,13,0.00,,,-99.99,FreeWX-Wi 1.02,2013-05-08 21:02:00,
2013-05-08 14:07:00,86.2,29.5,30.03,SW,235,4.0,10.5,13,0.00,,,-99.99,FreeWX-Wi 1.02,2013-05-08 21:07:00,
2013-05-08 14:12:00,87.3,30.4,30.03,WSW,246,5.0,15.0,13,0.00,,,-99.99,FreeWX-Wi 1.02,2013-05-08 21:12:00,
2013-05-08 14:17:00,85.6,29.1,30.03,West,260,4.0,6.3,13,0.00,,,-99.99,FreeWX-Wi 1.02,2013-05-08 21:17:00,
2013-05-08 14:22:00,85.6,29.1,30.03,West,267,4.0,6.3,13,0.00,,,-99.99,FreeWX-Wi 1.02,2013-05-08 21:22:00,
2013-05-08 14:27:00,86.0,29.5,30.03,West,271,4.0,8.7,13,0.00,,,-99.99,FreeWX-Wi 1.02,2013-05-08 21:27:00,
2013-05-08 14:32:00,86.4,29.7,30.03,West,273,5.0,10.5,13,0.00,,,-99.99,FreeWX-Wi 1.02,2013-05-08 21:32:00,
2013-05-08 14:37:00,85.8,29.3,30.03,West,269,4.0,4.0,13,0.00,,,-99.99,FreeWX-Wi 1.02,2013-05-08 21:37:00,
2013-05-08 14:42:00,86.5,29.8,30.03,West,264,4.0,10.5,13,0.00,,,-99.99,FreeWX-Wi 1.02,2013-05-08 21:42:00,
2013-05-08 14:47:00,86.9,30.2,30.00,WSW,247,4.0,8.1,13,0.00,,,-99.99,FreeWX-Wi 1.02,2013-05-08 21:47:00,
2013-05-08 14:52:00,86.5,29.8,30.00,SW,235,4.0,7.6,13,0.00,,,-99.99,FreeWX-Wi 1.02,2013-05-08 21:52:00,
2013-05-08 14:57:00,86.5,29.8,30.00,SW,225,4.0,8.7,13,0.00,,,-99.99,FreeWX-Wi 1.02,2013-05-08 21:57:00,
2013-05-08 15:02:00,87.3,30.4,30.00,SW,227,4.0,12.8,13,0.00,,,-99.99,FreeWX-Wi 1.02,2013-05-08 22:02:00,
2013-05-08 15:07:00,87.8,30.7,30.00,SW,230,5.0,10.1,13,0.00,,,-99.99,FreeWX-Wi 1.02,2013-05-08 22:07:00,
2013-05-08 15:12:00,86.7,30.0,30.00,SW,232,5.0,11.0,13,0.00,,,-99.99,FreeWX-Wi 1.02,2013-05-08 22:12:00,
2013-05-08 15:17:00,85.5,28.9,30.00,WSW,241,5.0,15.9,13,0.00,,,-99.99,FreeWX-Wi 1.02,2013-05-08 22:17:00,
2013-05-08 15:22:00,85.8,29.3,30.00,WSW,248,6.0,15.4,13,0.00,,,-99.99,FreeWX-Wi 1.02,2013-05-08 22:22:00,
2013-05-08 15:27:00,86.7,30.0,30.00,West,263,6.0,12.8,13,0.00,,,-99.99,FreeWX-Wi 1.02,2013-05-08 22:27:00,
2013-05-08 15:32:00,87.4,30.6,30.00,West,265,6.0,12.8,13,0.00,,,-99.99,FreeWX-Wi 1.02,2013-05-08 22:32:00,
2013-05-08 15:37:00,87.6,30.7,30.00,West,268,7.0,12.8,13,0.00,,,-99.99,FreeWX-Wi 1.02,2013-05-08 22:37:00,
2013-05-08 15:42:00,87.4,30.6,30.00,West,266,7.0,12.8,13,0.00,,,-99.99,FreeWX-Wi 1.02,2013-05-08 22:42:00,
2013-05-08 15:47:00,87.6,30.7,30.00,West,262,7.0,10.1,13,0.00,,,-99.99,FreeWX-Wi 1.02,2013-05-08 22:47:00,
2013-05-08 15:52:00,87.4,30.6,30.00,West,266,8.0,17.0,13,0.00,,,-99.99,FreeWX-Wi 1.02,2013-05-08 22:52:00,
2013-05-08 15:57:00,86.7,30.0,30.00,West,265,8.0,13.2,13,0.00,,,-99.99,FreeWX-Wi 1.02,2013-05-08 22:57:00,
2013-05-08 16:02:00,86.4,29.7,30.00,West,267,8.0,12.8,13,0.00,,,-99.99,FreeWX-Wi 1.02,2013-05-08 23:02:00,
2013-05-08 16:07:00,85.8,29.3,30.00,West,268,8.0,15.4,13,0.00,,,-99.99,FreeWX-Wi 1.02,2013-05-08 23:07:00,
2013-05-08 16:12:00,85.5,28.9,30.00,West,266,8.0,18.3,13,0.00,,,-99.99,FreeWX-Wi 1.02,2013-05-08 23:12:00,
2013-05-08 16:17:00,85.3,28.9,30.00,West,264,9.0,17.0,13,0.00,,,-99.99,FreeWX-Wi 1.02,2013-05-08 23:17:00,
2013-05-08 16:22:00,84.7,28.4,30.00,West,265,9.0,15.4,13,0.00,,,-99.99,FreeWX-Wi 1.02,2013-05-08 23:22:00,
2013-05-08 16:27:00,84.4,28.2,30.00,West,265,9.0,18.8,13,0.00,,,-99.99,FreeWX-Wi 1.02,2013-05-08 23:27:00,
2013-05-08 16:32:00,83.7,29.5,30.00,West,265,9.0,19.2,14,0.00,,,-99.99,FreeWX-Wi 1.02,2013-05-08 23:32:00,
2013-05-08 16:37:00,84.0,29.7,30.00,West,263,9.0,15.4,14,0.00,,,-99.99,FreeWX-Wi 1.02,2013-05-08 23:37:00,
2013-05-08 16:42:00,83.5,29.3,30.00,West,268,9.0,14.5,14,0.00,,,-99.99,FreeWX-Wi 1.02,2013-05-08 23:42:00,
2013-05-08 16:47:00,84.0,29.7,29.97,West,268,9.0,23.3,14,0.00,,,-99.99,FreeWX-Wi 1.02,2013-05-08 23:47:00,
2013-05-08 16:52:00,83.1,28.9,29.97,West,269,9.0,16.3,14,0.00,,,-99.99,FreeWX-Wi 1.02,2013-05-08 23:52:00,
2013-05-08 16:57:00,82.6,28.6,29.97,West,271,10.0,17.4,14,0.00,,,-99.99,FreeWX-Wi 1.02,2013-05-08 23:57:00,
2013-05-08 17:02:00,82.6,28.6,30.00,West,271,10.0,15.4,14,0.00,,,-99.99,FreeWX-Wi 1.02,2013-05-09 00:02:00,
2013-05-08 17:07:00,81.9,28.0,30.00,West,274,10.0,17.0,14,0.00,,,-99.99,FreeWX-Wi 1.02,2013-05-09 00:07:00,
2013-05-08 17:12:00,81.9,28.0,30.00,West,271,10.0,18.3,14,0.00,,,-99.99,FreeWX-Wi 1.02,2013-05-09 00:12:00,
2013-05-08 17:17:00,81.3,27.5,30.00,West,272,10.0,15.9,14,0.00,,,-99.99,FreeWX-Wi 1.02,2013-05-09 00:17:00,
2013-05-08 17:22:00,80.4,28.6,30.00,West,273,10.0,15.4,15,0.00,,,-99.99,FreeWX-Wi 1.02,2013-05-09 00:22:00,
2013-05-08 17:27:00,80.6,27.0,30.00,West,272,10.0,15.4,14,0.00,,,-99.99,FreeWX-Wi 1.02,2013-05-09 00:27:00,
2013-05-08 17:32:00,80.4,28.6,29.97,West,273,9.0,13.6,15,0.00,,,-99.99,FreeWX-Wi 1.02,2013-05-09 00:32:00,
2013-05-08 17:37:00,79.9,28.0,29.97,West,270,9.0,17.0,15,0.00,,,-99.99,FreeWX-Wi 1.02,2013-05-09 00:37:00,
2013-05-08 17:42:00,79.2,27.5,29.97,West,273,10.0,18.3,15,0.00,,,-99.99,FreeWX-Wi 1.02,2013-05-09 00:42:00,
2013-05-08 17:47:00,78.8,27.3,29.97,West,271,9.0,15.0,15,0.00,,,-99.99,FreeWX-Wi 1.02,2013-05-09 00:47:00,
2013-05-08 17:52:00,78.6,27.1,29.97,West,271,9.0,16.8,15,0.00,,,-99.99,FreeWX-Wi 1.02,2013-05-09 00:52:00,
2013-05-08 17:57:00,77.9,26.6,29.97,West,273,10.0,17.4,15,0.00,,,-99.99,FreeWX-Wi 1.02,2013-05-09 00:57:00,
2013-05-08 18:02:00,77.4,26.1,29.97,West,271,10.0,16.3,15,0.00,,,-99.99,FreeWX-Wi 1.02,2013-05-09 01:02:00,
2013-05-08 18:07:00,76.1,25.2,29.97,West,272,10.0,15.4,15,0.00,,,-99.99,FreeWX-Wi 1.02,2013-05-09 01:07:00,
2013-05-08 18:12:00,75.6,24.6,29.97,West,272,9.0,16.3,15,0.00,,,-99.99,FreeWX-Wi 1.02,2013-05-09 01:12:00,
2013-05-08 18:17:00,75.0,25.7,30.00,West,270,9.0,13.6,16,0.00,,,-99.99,FreeWX-Wi 1.02,2013-05-09 01:17:00,
2013-05-08 18:22:00,74.3,25.2,30.00,West,272,9.0,17.0,16,0.00,,,-99.99,FreeWX-Wi 1.02,2013-05-09 01:22:00,
2013-05-08 18:27:00,73.8,24.8,30.00,West,270,9.0,17.4,16,0.00,,,-99.99,FreeWX-Wi 1.02,2013-05-09 01:27:00,
2013-05-08 18:32:00,73.2,24.3,30.00,West,270,9.0,15.4,16,0.00,,,-99.99,FreeWX-Wi 1.02,2013-05-09 01:32:00,
2013-05-08 18:37:00,72.7,23.9,30.00,West,268,9.0,18.3,16,0.00,,,-99.99,FreeWX-Wi 1.02,2013-05-09 01:37:00,
2013-05-08 18:42:00,72.3,23.5,30.00,West,266,9.0,17.4,16,0.00,,,-99.99,FreeWX-Wi 1.02,2013-05-09 01:42:00,
2013-05-08 18:47:00,71.8,23.2,30.00,West,268,9.0,17.9,16,0.00,,,-99.99,FreeWX-Wi 1.02,2013-05-09 01:47:00,
2013-05-08 18:52:00,71.6,23.0,30.00,West,266,9.0,17.4,16,0.00,,,-99.99,FreeWX-Wi 1.02,2013-05-09 01:52:00,
2013-05-08 18:57:00,71.1,24.1,30.00,West,267,9.0,15.0,17,0.00,,,-99.99,FreeWX-Wi 1.02,2013-05-09 01:57:00,
2013-05-08 19:02:00,70.7,23.7,30.00,West,268,9.0,16.8,17,0.00,,,-99.99,FreeWX-Wi 1.02,2013-05-09 02:02:00,
2013-05-08 19:07:00,70.3,23.5,30.00,West,271,9.0,13.2,17,0.00,,,-99.99,FreeWX-Wi 1.02,2013-05-09 02:07:00,
2013-05-08 19:12:00,70.0,23.2,30.00,West,271,9.0,13.6,17,0.00,,,-99.99,FreeWX-Wi 1.02,2013-05-09 02:12:00,
2013-05-08 19:17:00,69.6,22.8,30.00,West,271,9.0,13.2,17,0.00,,,-99.99,FreeWX-Wi 1.02,2013-05-09 02:17:00,
2013-05-08 19:22:00,69.3,22.6,30.00,West,271,9.0,15.0,17,0.00,,,-99.99,FreeWX-Wi 1.02,2013-05-09 02:22:00,
2013-05-08 19:27:00,68.9,22.3,30.00,West,272,9.0,16.8,17,0.00,,,-99.99,FreeWX-Wi 1.02,2013-05-09 02:27:00,
2013-05-08 19:32:00,68.5,21.9,30.00,West,272,9.0,17.4,17,0.00,,,-99.99,FreeWX-Wi 1.02,2013-05-09 02:32:00,
2013-05-08 19:37:00,68.2,21.7,30.00,West,271,9.0,14.5,17,0.00,,,-99.99,FreeWX-Wi 1.02,2013-05-09 02:37:00,
2013-05-08 19:42:00,68.0,21.6,30.00,West,273,9.0,12.8,17,0.00,,,-99.99,FreeWX-Wi 1.02,2013-05-09 02:42:00,
2013-05-08 19:47:00,67.8,21.4,30.00,West,276,8.0,15.9,17,0.00,,,-99.99,FreeWX-Wi 1.02,2013-05-09 02:47:00,
2013-05-08 19:52:00,67.8,21.4,30.00,West,278,8.0,15.0,17,0.00,,,-99.99,FreeWX-Wi 1.02,2013-05-09 02:52:00,
2013-05-08 19:57:00,67.5,21.2,30.00,West,281,8.0,15.0,17,0.00,,,-99.99,FreeWX-Wi 1.02,2013-05-09 02:57:00,
2013-05-08 20:02:00,67.1,20.8,30.00,West,280,8.0,17.4,17,0.00,,,-99.99,FreeWX-Wi 1.02,2013-05-09 03:02:00,
2013-05-08 20:07:00,66.9,20.7,30.00,West,281,8.0,16.8,17,0.00,,,-99.99,FreeWX-Wi 1.02,2013-05-09 03:07:00,
2013-05-08 20:12:00,66.7,20.5,30.00,West,281,8.0,12.3,17,0.00,,,-99.99,FreeWX-Wi 1.02,2013-05-09 03:12:00,
2013-05-08 20:17:00,66.6,20.5,30.00,West,281,8.0,15.0,17,0.00,,,-99.99,FreeWX-Wi 1.02,2013-05-09 03:17:00,
2013-05-08 20:22:00,66.4,20.3,30.00,WNW,282,7.0,12.3,17,0.00,,,-99.99,FreeWX-Wi 1.02,2013-05-09 03:22:00,
2013-05-08 20:27:00,66.2,20.1,30.00,WNW,286,7.0,10.5,17,0.00,,,-99.99,FreeWX-Wi 1.02,2013-05-09 03:27:00,
2013-05-08 20:32:00,66.0,21.4,30.00,WNW,293,6.0,12.3,18,0.00,,,-99.99,FreeWX-Wi 1.02,2013-05-09 03:32:00,
2013-05-08 20:37:00,65.8,23.7,30.00,WNW,302,6.0,8.3,20,0.00,,,-99.99,FreeWX-Wi 1.02,2013-05-09 03:37:00,
2013-05-08 20:42:00,65.7,23.5,30.00,NW,309,5.0,9.6,20,0.00,,,-99.99,FreeWX-Wi 1.02,2013-05-09 03:42:00,
2013-05-08 20:47:00,65.5,23.4,30.00,NW,318,5.0,11.0,20,0.00,,,-99.99,FreeWX-Wi 1.02,2013-05-09 03:47:00,
2013-05-08 20:52:00,65.5,23.4,30.00,NW,326,5.0,8.1,20,0.00,,,-99.99,FreeWX-Wi 1.02,2013-05-09 03:52:00,
2013-05-08 20:57:00,65.3,23.2,30.00,NNW,328,4.0,8.7,20,0.00,,,-99.99,FreeWX-Wi 1.02,2013-05-09 03:57:00,
2013-05-08 21:02:00,65.1,23.0,30.00,NNW,330,4.0,8.7,20,0.00,,,-99.99,FreeWX-Wi 1.02,2013-05-09 04:02:00,
2013-05-08 21:07:00,65.1,23.0,30.00,NNW,334,5.0,10.1,20,0.00,,,-99.99,FreeWX-Wi 1.02,2013-05-09 04:07:00,
2013-05-08 21:12:00,64.9,22.8,30.00,NNW,336,5.0,11.0,20,0.00,,,-99.99,FreeWX-Wi 1.02,2013-05-09 04:12:00,
2013-05-08 21:17:00,64.8,22.8,30.03,NNW,338,5.0,8.1,20,0.00,,,-99.99,FreeWX-Wi 1.02,2013-05-09 04:17:00,
2013-05-08 21:22:00,64.8,22.8,30.03,NNW,340,5.0,8.1,20,0.00,,,-99.99,FreeWX-Wi 1.02,2013-05-09 04:22:00,
2013-05-08 21:27:00,64.6,22.6,30.03,NNW,344,4.0,5.8,20,0.00,,,-99.99,FreeWX-Wi 1.02,2013-05-09 04:27:00,
2013-05-08 21:32:00,64.4,22.5,30.03,NNW,343,4.0,8.3,20,0.00,,,-99.99,FreeWX-Wi 1.02,2013-05-09 04:32:00,
2013-05-08 21:37:00,64.4,22.5,30.03,NNW,344,4.0,8.3,20,0.00,,,-99.99,FreeWX-Wi 1.02,2013-05-09 04:37:00,
2013-05-08 21:42:00,64.4,22.5,30.03,NNW,342,4.0,10.1,20,0.00,,,-99.99,FreeWX-Wi 1.02,2013-05-09 04:42:00,
2013-05-08 21:47:00,64.0,23.4,30.03,NNW,341,4.0,8.1,21,0.00,,,-99.99,FreeWX-Wi 1.02,2013-05-09 04:47:00,
2013-05-08 21:52:00,64.2,23.5,30.03,NNW,339,4.0,8.1,21,0.00,,,-99.99,FreeWX-Wi 1.02,2013-05-09 04:52:00,
2013-05-08 21:57:00,63.9,23.2,30.03,NNW,338,4.0,7.6,21,0.00,,,-99.99,FreeWX-Wi 1.02,2013-05-09 04:57:00,
2013-05-08 22:02:00,63.9,23.2,30.03,NNW,340,4.0,9.6,21,0.00,,,-99.99,FreeWX-Wi 1.02,2013-05-09 05:02:00,
2013-05-08 22:07:00,64.0,23.4,30.03,NNW,338,4.0,6.3,21,0.00,,,-99.99,FreeWX-Wi 1.02,2013-05-09 05:07:00,
2013-05-08 22:12:00,64.0,23.4,30.03,NNW,342,4.0,8.3,21,0.00,,,-99.99,FreeWX-Wi 1.02,2013-05-09 05:12:00,
2013-05-08 22:17:00,63.7,25.2,30.03,NNW,344,4.0,14.1,23,0.00,,,-99.99,FreeWX-Wi 1.02,2013-05-09 05:17:00,
2013-05-08 22:22:00,63.5,25.0,30.03,NNW,342,4.0,8.1,23,0.00,,,-99.99,FreeWX-Wi 1.02,2013-05-09 05:22:00,
2013-05-08 22:27:00,63.5,25.0,30.03,NNW,343,4.0,8.7,23,0.00,,,-99.99,FreeWX-Wi 1.02,2013-05-09 05:27:00,
2013-05-08 22:32:00,63.3,25.0,30.03,NNW,339,4.0,8.7,23,0.00,,,-99.99,FreeWX-Wi 1.02,2013-05-09 05:32:00,
2013-05-08 22:37:00,63.0,24.6,30.03,NNW,335,4.0,7.6,23,0.00,,,-99.99,FreeWX-Wi 1.02,2013-05-09 05:37:00,
2013-05-08 22:42:00,62.8,24.4,30.03,NNW,331,4.0,10.1,23,0.00,,,-99.99,FreeWX-Wi 1.02,2013-05-09 05:42:00,
2013-05-08 22:47:00,63.0,24.6,30.03,NW,326,4.0,10.5,23,0.00,,,-99.99,FreeWX-Wi 1.02,2013-05-09 05:47:00,
2013-05-08 22:52:00,63.0,24.6,30.03,NW,324,4.0,13.2,23,0.00,,,-99.99,FreeWX-Wi 1.02,2013-05-09 05:52:00,
2013-05-08 22:57:00,63.0,24.6,30.03,NW,325,3.0,6.3,23,0.00,,,-99.99,FreeWX-Wi 1.02,2013-05-09 05:57:00,
2013-05-08 23:02:00,62.8,24.4,30.03,NNW,331,4.0,11.4,23,0.00,,,-99.99,FreeWX-Wi 1.02,2013-05-09 06:02:00,
2013-05-08 23:07:00,62.8,24.4,30.03,NNW,328,4.0,10.5,23,0.00,,,-99.99,FreeWX-Wi 1.02,2013-05-09 06:07:00,
2013-05-08 23:12:00,62.4,25.2,30.03,NW,326,4.0,8.1,24,0.00,,,-99.99,FreeWX-Wi 1.02,2013-05-09 06:12:00,
2013-05-08 23:17:00,62.4,25.2,30.03,NW,323,4.0,9.6,24,0.00,,,-99.99,FreeWX-Wi 1.02,2013-05-09 06:17:00,
2013-05-08 23:22:00,62.4,25.2,30.03,NW,323,4.0,7.6,24,0.00,,,-99.99,FreeWX-Wi 1.02,2013-05-09 06:22:00,
2013-05-08 23:27:00,62.1,24.8,30.03,NW,318,4.0,6.3,24,0.00,,,-99.99,FreeWX-Wi 1.02,2013-05-09 06:27:00,
2013-05-08 23:32:00,62.1,24.8,30.03,NW,320,4.0,5.8,24,0.00,,,-99.99,FreeWX-Wi 1.02,2013-05-09 06:32:00,
2013-05-08 23:37:00,62.2,25.0,30.03,NNW,329,3.0,10.1,24,0.00,,,-99.99,FreeWX-Wi 1.02,2013-05-09 06:37:00,
2013-05-08 23:42:00,62.1,24.8,30.03,NNW,332,3.0,7.6,24,0.00,,,-99.99,FreeWX-Wi 1.02,2013-05-09 06:42:00,
2013-05-08 23:47:00,61.9,24.6,30.03,NNW,332,2.0,7.2,24,0.00,,,-99.99,FreeWX-Wi 1.02,2013-05-09 06:47:00,
2013-05-08 23:52:00,61.9,24.6,30.03,NNW,330,2.0,6.3,24,0.00,,,-99.99,FreeWX-Wi 1.02,2013-05-09 06:52:00,
2013-05-08 23:57:00,61.7,24.6,30.03,NNW,332,2.0,8.7,24,0.00,,,-99.99,FreeWX-Wi 1.02,2013-05-09 06:57:00,